SV2BBO-2 Thessaloniki GR current weather conditions

sailwx.info

Wind from 076

Air temperature 21.7° C
Dewpoint 5.9° C

Last reported at 2014-Sep-20 02:47 UTC.
Time now 2014-Sep-20 03:51 UTC

Location: N 40°38' E 022°57'.
View on Google Maps.

See reports from other nearby stations

  
Tides and Currents Weather Stations Pressure Air Temp Water Temp Dewpoint Dewpoint Depression Visibility Wind Speed Wind Dir Waves Ship Positions
date/time (UTC)wind fromknots sea level pressurealtimeterstation pressurevisibilityair tempwater tempwave heightnotes
2014-Sep-20 02:47 076 21.7
2014-Sep-20 02:37 076 21.7
2014-Sep-20 02:27 076 21.7
2014-Sep-20 02:17 076 21.7
2014-Sep-20 02:07 076 21.7
2014-Sep-20 01:57 076 2 gusting 2 21.7
2014-Sep-20 01:47 077 2 gusting 2 22.2
2014-Sep-20 01:37 077 22.2
2014-Sep-20 01:27 077 2 gusting 2 22.2
2014-Sep-20 01:17 077 2 gusting 2 22.2
2014-Sep-20 01:07 078 22.2
2014-Sep-20 00:57 078 1 22.2
2014-Sep-20 00:47 083 3 gusting 3 22.2
2014-Sep-20 00:37 086 22.2
2014-Sep-20 00:27 086 22.2
2014-Sep-20 00:17 086 22.2
2014-Sep-20 00:07 086 2 gusting 2 22.2
2014-Sep-19 23:57 095 22.8
2014-Sep-19 23:47 090 2 gusting 3 22.8
2014-Sep-19 23:37 082 22.8
2014-Sep-19 23:27 094 22.8
2014-Sep-19 23:17 094 22.8
2014-Sep-19 23:07 099 22.8
2014-Sep-19 22:57 119 2 gusting 4 22.8
2014-Sep-19 22:47 094 2 gusting 3 22.8
2014-Sep-19 22:37 108 2 gusting 3 22.8
2014-Sep-19 22:27 089 22.8
2014-Sep-19 22:17 101 2 gusting 3 22.8
2014-Sep-19 22:07 078 2 22.8
2014-Sep-19 21:57 094 2 gusting 3 22.8
2014-Sep-19 21:47 102 2 gusting 3 22.8
2014-Sep-19 21:37 072 22.8
2014-Sep-19 21:27 082 0 gusting 3 22.8
2014-Sep-19 21:17 087 2 gusting 3 22.8
2014-Sep-19 21:07 094 2 gusting 3 23.3
2014-Sep-19 20:57 101 2 23.3
2014-Sep-19 20:47 101 23.3
2014-Sep-19 20:37 083 23.3
2014-Sep-19 20:27 095 23.3
2014-Sep-19 20:17 115 3 gusting 3 23.3
2014-Sep-19 20:07 089 2 gusting 2 23.3
2014-Sep-19 19:57 119 2 gusting 3 23.3
2014-Sep-19 19:47 103 2 gusting 4 23.3
2014-Sep-19 19:37 110 2 gusting 4 23.3
2014-Sep-19 19:27 125 2 gusting 3 23.3
2014-Sep-19 19:17 082 23.3
2014-Sep-19 19:07 121 1 gusting 2 23.9
2014-Sep-19 18:57 078 2 gusting 3 23.9
2014-Sep-19 18:47 080 2 gusting 2 23.9
2014-Sep-19 18:37 105 2 gusting 3 23.9
2014-Sep-19 18:27 084 2 gusting 2 23.9
2014-Sep-19 18:17 097 23.9
2014-Sep-19 18:07 097 23.9
2014-Sep-19 17:57 116 2 gusting 4 23.9
2014-Sep-19 17:47 083 2 gusting 3 24.4
2014-Sep-19 17:37 093 2 gusting 4 24.4
2014-Sep-19 17:27 142 3 gusting 3 24.4
2014-Sep-19 17:17 157 4 gusting 5 24.4
2014-Sep-19 17:07 167 2 gusting 3 24.4
2014-Sep-19 16:57 175 4 gusting 3 24.4
2014-Sep-19 16:47 175 3 gusting 5 24.4
2014-Sep-19 16:37 205 4 gusting 6 24.4
2014-Sep-19 16:27 184 4 gusting 6 24.4
2014-Sep-19 16:17 171 3 gusting 4 24.4
2014-Sep-19 16:07 195 5 gusting 5 25.0
2014-Sep-19 15:57 203 4 gusting 4 24.4
2014-Sep-19 15:47 187 4 gusting 6 24.4
2014-Sep-19 15:37 238 4 gusting 5 25.0
2014-Sep-19 15:27 187 5 gusting 6 25.0
2014-Sep-19 15:17 204 3 gusting 6 25.0
2014-Sep-19 15:07 206 4 gusting 5 25.0
2014-Sep-19 14:57 206 4 gusting 5 25.0
2014-Sep-19 14:47 228 2 gusting 5 25.0
2014-Sep-19 14:37 218 5 gusting 6 25.0
2014-Sep-19 14:27 224 4 gusting 5 25.0
2014-Sep-19 14:17 225 3 gusting 5 24.4
2014-Sep-19 14:07 226 3 gusting 6 25.0
2014-Sep-19 13:57 220 5 gusting 6 24.4
2014-Sep-19 13:47 178 4 gusting 4 24.4
2014-Sep-19 13:37 201 3 gusting 6 24.4
2014-Sep-19 13:27 228 4 gusting 6 24.4
2014-Sep-19 13:17 215 5 gusting 6 24.4
2014-Sep-19 13:07 219 3 gusting 3 24.4
2014-Sep-19 12:57 206 4 gusting 5 24.4
2014-Sep-19 12:47 234 2 gusting 3 23.9
2014-Sep-19 12:37 178 3 gusting 5 23.9
2014-Sep-19 12:27 216 4 gusting 6 23.9
2014-Sep-19 12:17 193 4 gusting 6 23.9
2014-Sep-19 12:07 216 3 gusting 5 23.9
2014-Sep-19 11:57 151 2 gusting 3 23.9
2014-Sep-19 11:47 217 3 gusting 5 23.3
2014-Sep-19 11:37 194 2 gusting 3 23.3
2014-Sep-19 11:27 263 3 gusting 6 23.3
2014-Sep-19 11:17 236 2 gusting 4 23.3
2014-Sep-19 11:07 233 2 gusting 5 23.9
2014-Sep-19 10:57 216 2 gusting 3 23.3
2014-Sep-19 10:47 232 2 gusting 3 23.3
2014-Sep-19 10:37 272 3 gusting 3 23.3
2014-Sep-19 10:27 224 2 gusting 5 23.3
2014-Sep-19 10:17 214 2 gusting 5 23.3
2014-Sep-19 10:07 206 23.3
2014-Sep-19 09:57 221 0 gusting 3 22.8
2014-Sep-19 09:47 205 2 gusting 3 22.8
2014-Sep-19 09:37 245 3 gusting 5 22.8
2014-Sep-19 09:27 204 2 gusting 5 22.8
2014-Sep-19 09:17 241 2 gusting 3 22.2
2014-Sep-19 09:07 218 22.2
2014-Sep-19 08:57 214 3 gusting 5 22.2
2014-Sep-19 08:47 236 3 gusting 5 22.2
2014-Sep-19 08:37 203 2 gusting 3 22.2
2014-Sep-19 08:27 275 2 gusting 3 22.2
2014-Sep-19 08:17 218 3 gusting 5 22.2
2014-Sep-19 08:07 209 22.8
2014-Sep-19 07:57 243 3 gusting 3 22.8
2014-Sep-19 07:47 231 22.8
2014-Sep-19 07:37 275 2 gusting 3 22.8
2014-Sep-19 07:27 193 2 gusting 4 22.8
2014-Sep-19 07:17 222 3 gusting 4 22.8
2014-Sep-19 07:07 157 2 gusting 3 22.8
2014-Sep-19 06:57 149 22.8
2014-Sep-19 06:47 227 22.2
2014-Sep-19 06:37 227 21.7
2014-Sep-19 06:27 225 0 21.7
2014-Sep-19 06:17 145 1 gusting 3 21.7
2014-Sep-19 06:07 097 22.2
2014-Sep-19 05:57 050 21.7
2014-Sep-19 05:47 050 21.1
2014-Sep-19 05:37 050 20.6
2014-Sep-19 05:27 047 20.6
2014-Sep-19 05:17 047 20.0
2014-Sep-19 05:07 047 19.4
2014-Sep-19 04:57 047 19.4
2014-Sep-19 04:47 047 19.4
2014-Sep-19 04:37 047 19.4
2014-Sep-19 04:27 047 19.4
2014-Sep-19 04:17 047 19.4
2014-Sep-19 04:07 047 19.4
2014-Sep-19 03:57 047 19.4
2014-Sep-19 03:47 047 19.4
2014-Sep-19 03:37 047 19.4
2014-Sep-19 03:27 047 19.4
2014-Sep-19 03:17 047 19.4
2014-Sep-19 03:07 047 19.4
2014-Sep-19 02:57 047 19.4
2014-Sep-19 02:47 047 19.4
2014-Sep-19 02:37 047 19.4
2014-Sep-19 02:27 047 19.4
2014-Sep-19 02:17 047 2 gusting 2 19.4
2014-Sep-19 02:07 047 19.4
2014-Sep-19 01:57 047 19.4
2014-Sep-19 01:37 047 19.4
2014-Sep-19 01:27 047 19.4
2014-Sep-19 01:17 046 19.4
2014-Sep-19 01:07 046 19.4
2014-Sep-19 00:57 046 19.4
2014-Sep-19 00:47 046 19.4
2014-Sep-19 00:37 055 0 gusting 3 19.4
2014-Sep-19 00:27 055 19.4
2014-Sep-19 00:17 055 19.4
2014-Sep-19 00:07 055 19.4
2014-Sep-18 23:57 055 1 gusting 2 19.4
2014-Sep-18 23:47 055 1 gusting 2 20.0
2014-Sep-18 23:37 038 20.0
2014-Sep-18 23:27 038 20.0
2014-Sep-18 23:17 038 20.0
2014-Sep-18 23:07 038 20.0
2014-Sep-18 22:57 038 20.0
2014-Sep-18 22:47 038 20.0
2014-Sep-18 22:37 038 20.6
2014-Sep-18 22:27 038 20.6
2014-Sep-18 22:17 038 20.6
2014-Sep-18 22:07 038 20.6
2014-Sep-18 21:57 038 20.6
2014-Sep-18 21:47 038 20.6
2014-Sep-18 21:37 038 20.6
2014-Sep-18 21:27 038 20.6
2014-Sep-18 21:17 038 20.6
2014-Sep-18 21:07 038 20.6
2014-Sep-18 20:57 038 1 gusting 2 20.6
2014-Sep-18 20:47 035 20.6
2014-Sep-18 20:37 035 21.1
2014-Sep-18 20:27 035 21.1
2014-Sep-18 20:17 035 20.6
2014-Sep-18 20:07 035 21.1
2014-Sep-18 19:57 035 21.1
2014-Sep-18 19:47 013 21.1
2014-Sep-18 19:37 352 21.1
2014-Sep-18 19:27 351 21.1
2014-Sep-18 19:17 353 21.7
2014-Sep-18 19:07 353 21.7
2014-Sep-18 18:57 353 21.7
2014-Sep-18 18:47 339 0 gusting 2 21.7
2014-Sep-18 18:37 337 1 gusting 2 21.7
2014-Sep-18 18:27 013 2 gusting 3 21.7
2014-Sep-18 18:17 049 22.2
2014-Sep-18 18:07 049 22.2
2014-Sep-18 17:57 001 3 gusting 2 22.2
2014-Sep-18 17:47 030 22.2
2014-Sep-18 17:37 056 2 gusting 4 22.2
2014-Sep-18 17:27 001 2 gusting 4 22.2
2014-Sep-18 17:17 310 2 gusting 3 22.2
2014-Sep-18 17:07 285 2 gusting 4 22.2
2014-Sep-18 16:57 328 2 gusting 3 22.2
2014-Sep-18 16:47 322 3 gusting 4 22.2
2014-Sep-18 16:37 326 4 gusting 6 22.2
2014-Sep-18 16:27 318 2 gusting 2 22.2
2014-Sep-18 16:17 279 5 gusting 6 22.8
2014-Sep-18 16:07 302 3 gusting 5 22.8
2014-Sep-18 15:57 281 3 gusting 4 22.8
2014-Sep-18 15:47 233 3 gusting 6 22.8
2014-Sep-18 15:37 269 3 gusting 5 22.8
2014-Sep-18 15:27 278 2 gusting 5 22.8
2014-Sep-18 15:17 286 2 gusting 3 22.8
2014-Sep-18 15:07 230 3 gusting 4 22.8
2014-Sep-18 14:57 229 3 gusting 5 22.8
2014-Sep-18 14:47 256 2 gusting 4 22.8
2014-Sep-18 14:37 279 3 gusting 4 22.8
2014-Sep-18 14:27 221 3 gusting 5 22.8
2014-Sep-18 14:17 218 3 gusting 5 22.8
2014-Sep-18 14:07 234 3 gusting 5 22.8
2014-Sep-18 13:57 270 3 gusting 6 22.8
2014-Sep-18 13:47 167 2 gusting 3 22.2
2014-Sep-18 13:37 259 3 gusting 3 22.2
2014-Sep-18 13:27 228 5 gusting 5 22.2
2014-Sep-18 13:17 274 3 gusting 4 22.2
2014-Sep-18 13:07 293 4 gusting 5 22.2
2014-Sep-18 12:57 285 4 gusting 6 22.2
2014-Sep-18 12:47 278 4 gusting 5 22.2
2014-Sep-18 12:37 291 5 gusting 6 22.2
2014-Sep-18 12:27 328 22.2
2014-Sep-18 12:17 331 3 gusting 5 22.2
2014-Sep-18 12:07 311 2 gusting 2 22.2
2014-Sep-18 11:57 266 2 gusting 2 22.2
2014-Sep-18 11:47 286 3 gusting 3 22.2
2014-Sep-18 11:37 271 4 gusting 7 22.2
2014-Sep-18 11:27 273 4 gusting 6 22.2
2014-Sep-18 11:17 183 3 gusting 3 22.2
2014-Sep-18 11:07 275 3 gusting 6 22.8
2014-Sep-18 10:57 258 3 gusting 4 22.8
2014-Sep-18 10:47 226 2 gusting 5 22.8
2014-Sep-18 10:37 243 3 gusting 4 22.8
2014-Sep-18 10:27 232 22.8
2014-Sep-18 10:17 223 22.2
2014-Sep-18 10:07 209 2 gusting 2 22.2
2014-Sep-18 09:57 011 22.2
2014-Sep-18 09:47 007 22.2
2014-Sep-18 09:37 021 2 gusting 4 22.2
2014-Sep-18 09:27 330 1 21.7
2014-Sep-18 09:17 009 2 gusting 3 22.2
2014-Sep-18 09:07 294 3 gusting 3 21.7
2014-Sep-18 08:57 296 2 gusting 4 21.7
2014-Sep-18 08:47 322 3 gusting 3 21.7
2014-Sep-18 08:37 302 2 gusting 3 21.7
2014-Sep-18 08:27 143 21.7
2014-Sep-18 08:17 003 21.7
2014-Sep-18 08:07 356 0 gusting 3 21.1
2014-Sep-18 07:57 211 21.1
2014-Sep-18 07:47 160 2 gusting 3 21.1
2014-Sep-18 07:37 216 21.7
2014-Sep-18 07:27 131 2 gusting 2 21.7
2014-Sep-18 07:17 120 21.1
2014-Sep-18 07:07 120 21.1
2014-Sep-18 06:57 202 2 gusting 4 20.6
2014-Sep-18 06:47 173 20.6
2014-Sep-18 06:37 051 4 gusting 6 20.6
2014-Sep-18 06:27 023 4 gusting 5 20.0
2014-Sep-18 06:17 025 5 gusting 7 20.0
2014-Sep-18 06:07 021 6 gusting 7 20.6
2014-Sep-18 05:57 016 6 gusting 5 20.6
2014-Sep-18 05:47 002 6 gusting 7 20.0
2014-Sep-18 05:37 026 6 gusting 10 20.0
2014-Sep-18 05:27 020 6 gusting 7 20.0
2014-Sep-18 05:17 357 6 gusting 6 20.0
2014-Sep-18 05:07 014 6 gusting 5 20.0
2014-Sep-18 04:57 038 7 gusting 7 20.0
2014-Sep-18 04:47 016 7 gusting 10 20.0
2014-Sep-18 04:37 004 6 gusting 8 20.0
2014-Sep-18 04:27 018 5 gusting 6 20.6
2014-Sep-18 04:17 048 3 gusting 4 20.6
2014-Sep-18 04:07 327 21.1
2014-Sep-18 03:57 325 21.1
2014-Sep-18 03:47 325 20.6
2014-Sep-18 03:37 325 20.6
2014-Sep-18 03:27 325 1 20.6
2014-Sep-18 03:17 003 20.6
2014-Sep-18 03:07 331 2 gusting 3 20.6